INMARSAT 4-F2 (SOUTHPA*)

Last updated on Sun Jun 21 2026 00:03:33 GMT+0000 (Coordinated Universal Time)

1 28899U 05044A 26170.99265009 -.00000268 00000+0 00000+0 0 9990 2 28899 5.0996 43.7044 0002972 35.9627 329.3724 1.00270761 75557
UTC large
Height (km)
Speed (km/s)
/
Latitude / Longitude
Inclination (degrees)
Orbital Period (minutes)
Azimuth
Elevation
Range (km)
Doppler Factor

Next 0 passes for location: London (51.5072 / 0.1276)

No passes found over London.
INMARSAT 4-F2 (SOUTHPA*)